Regional Weather Roundup
Issued by NWS

Home | Current Version | Previous Version | Graphics & Text | Print | Product List | Glossary On
Versions: 1 2 3 4 5 6 7 8 9 10 11 12 13 14 15 16 17 18 19 20 21 22 23 24 25 26 27
000
ASUS45 KSLC 252310
RWRUT

UTAH REGIONAL WEATHER ROUNDUP
NATIONAL WEATHER SERVICE SALT LAKE CITY UT
500 PM MDT WED APR 25 2018

UTZ001>011-023>025-260000-

NORTHERN UTAH

CITY           SKY/WX    TMP DP  RH WIND       PRES   REMARKS
BRIGHAM CITY   MOSUNNY   68  19  15 S5        30.14F
DUGWAY         PTSUNNY   75  18  11 NW8G16    30.12F
HILL AFB       SUNNY     67  28  23 W12       30.15F
LOGAN          SUNNY     66  30  26 NW8       30.12F
OGDEN          MOSUNNY   68  25  19 W9        30.14F
SALT LAKE CITY PTSUNNY   72  29  20 N13       30.11F
TOOELE VALLEY  MOSUNNY   70  32  24 N9        30.13F
WENDOVER       MOSUNNY   68  25  19 E8        30.12F
HEBER CITY       N/A     70  21  16 SW14G20   30.13S
WEST JORDAN    SUNNY     70  35  28 NW10      30.13F

$$

UTZ011>015-024>027-260000-

CENTRAL/NORTHEAST UTAH

CITY           SKY/WX    TMP DP  RH WIND       PRES   REMARKS
PROVO AIRPORT  MOSUNNY   72  24  16 VRB3      30.12F
MOAB/CANYONLAN SUNNY     71   2   6 W7        30.10F
DELTA          MOSUNNY   70  19  14 CALM      30.13F
PRICE          SUNNY     69  12  11 SW10      30.14F
RICHFIELD      SUNNY     75  23  14 W3        30.14F
ROOSEVELT      SUNNY     68  18  14 S5        30.13F
VERNAL         SUNNY     64  17  16 SE7       30.13F

$$

UTZ013>016-019>022-027-260000-

SOUTHERN UTAH

CITY           SKY/WX    TMP DP  RH WIND       PRES   REMARKS
BRYCE CANYON   SUNNY     69  19  15 NW14G22   30.25F
CEDAR CITY     MOSUNNY   76  23  14 NW7       30.14F
MILFORD        SUNNY     78  26  14 VRB6      30.11F
ST GEORGE      CLEAR     87  23   9 N5        29.99F
HANKSVILLE     SUNNY     72  14  11 CALM      30.12F
KANAB          SUNNY     81  19  10 S10       30.13F
BLANDING         N/A     73  11   9 W10G17    30.20F

$$

REGIONAL REPORTS     COLORADO/ARIZONA

CITY           SKY/WX    TMP DP  RH WIND       PRES   REMARKS
CRAIG, CO      SUNNY     65  26  23 W12       30.14F
GRAND JUNCTION SUNNY     70   6   8 NW15      30.10F
RIFLE, CO      SUNNY     70  11  10 W15       30.09F
MONTROSE, CO   SUNNY     68  -4   5 N8        30.14F
CORTEZ, CO     SUNNY     72  -7   4 W13       30.14F
COLORADO CITY    N/A     81  23  12 N6        30.13F
PAGE, AZ       SUNNY     78  15   9 NE7       30.08F
GRAND CANYON   SUNNY     73  14  10 W10G18    30.21F
KINGMAN, AZ    SUNNY     90  23   9 W16       30.01F
FLAGSTAFF, AZ  MOSUNNY   71  20  14 NE8       30.21F

$$

REGIONAL REPORTS    NEVADA/IDAHO/WYOMING

CITY           SKY/WX    TMP DP  RH WIND       PRES   REMARKS
LAS VEGAS, NV  MOSUNNY   92  22   8 CALM      29.94F
ELY, NY        PTSUNNY   74  19  12 W14       30.16F
ELKO, NV       SUNNY     74  22  14 W8G22     30.15F
POCATELLO, ID  MOSUNNY   68  24  19 W17       30.11F
BURLEY, ID     MOSUNNY   69  24  18 NW15G28   30.11F
FORT BRIDGER,    N/A     66   8  10 W24G32    30.19F
EVANSTON, WY   SUNNY     63  14  15 SW20G29   30.19F
ROCK SPRINGS,  MOSUNNY   63   8  11 W21G29    30.14F
KEMMERER, WY   SUNNY     61   9  12 W25G35    30.17F

$$




USA.gov is the U.S. government's official web portal to all federal, state and local government web resources and services.